Location: Dappach
(48.9767°N, 9.6998°E)
Time: 01:34:48
(UTC+00:00)

Resurs 1-4 Rocket - Pass Details

Date: 23 May 2024
Orbit: 798 x 814 km, 98.7° (Epoch: 13 June)

Event Time Altitude Azimuth Distance (km) Brightness Sun altitude
Rises 00:25:22 0° 23° (NNE) 3,318 6.9 -18.8°
Reaches altitude 10° 00:28:04 10° 36° (NE) 2,382 5.6 -18.7°
Maximum altitude 00:32:31 27° 94° (E) 1,491 3.6 -18.4°
Enters shadow 00:36:00 14° 145° (SE) 2,086 3.9 -18.2°
